Location: Siratepeler Tepesi
(39.1042°N, 32.0781°E)
Time: 04:34:26
(UTC+00:00)

Cosmos 2278 Rocket - Pass Details

Date: 11 April 2026
Orbit: 839 x 846 km, 71.0° (Epoch: 9 May)

Event Time Altitude Azimuth Distance (km) Brightness Sun altitude
Rises 19:41:17 0° 334° (NNW) 3,412 6.4 -33.4°
Reaches altitude 10° 19:43:45 10° 331° (NNW) 2,472 5.4 -33.7°
Enters shadow 19:47:43 45° 312° (NW) 1,147 3.1 -34.2°
